This is the latest recevied weather packets stored in our database for station/object WE8M. If no packets are shown the sender has not sent any weather packets the latest 10 day(s).
| Time | Temp. | Humidity | Pressure | Rain* | Wind** | Luminosity | Snow |
|---|---|---|---|---|---|---|---|
| 1777686718 | 5° C | 76% | 1016.9 hPa | 0 mm | - | - | - |
| 1777686416 | 5.56° C | 75% | 1017.1 hPa | 0 mm | - | - | - |
| 1777686113 | 6.11° C | 76% | 1016.8 hPa | 0 mm | - | - | - |
| 1777685809 | 6.11° C | 71% | 1016.7 hPa | 0 mm | - | - | - |
| 1777685504 | 6.11° C | 70% | 1016.8 hPa | 0 mm | - | - | - |
| 1777685202 | 6.67° C | 69% | 1016.9 hPa | 0 mm | - | - | - |
| 1777684900 | 6.67° C | 68% | 1016.8 hPa | 0 mm | - | - | - |
| 1777684596 | 6.67° C | 67% | 1016.7 hPa | 0 mm | - | - | - |
| 1777684292 | 6.67° C | 69% | 1016.6 hPa | 0 mm | - | - | - |
| 1777683990 | 6.67° C | 65% | 1016.4 hPa | 0 mm | - | - | - |
| 1777683686 | 6.67° C | 65% | 1016.4 hPa | 0 mm | - | - | - |
| 1777683384 | 6.67° C | 66% | 1016.3 hPa | 0 mm | - | - | - |
| 1777683081 | 7.22° C | 68% | 1016.2 hPa | 0 mm | - | - | - |
| 1777682777 | 7.78° C | 67% | 1015.7 hPa | 0 mm | - | - | - |
| 1777682474 | 7.78° C | 64% | 1015.6 hPa | 0 mm | - | - | - |
| 1777682172 | 8.33° C | 63% | 1015.5 hPa | 0 mm | - | - | - |
| 1777681868 | 8.33° C | 62% | 1015.4 hPa | 0 mm | - | - | - |
| 1777681564 | 8.33° C | 63% | 1015.3 hPa | 0 mm | - | - | - |
| 1777681262 | 8.89° C | 63% | 1015.5 hPa | 0 mm | - | - | - |
| 1777680960 | 8.89° C | 63% | 1015.6 hPa | 0 mm | - | - | - |
| 1777680656 | 8.89° C | 62% | 1015.3 hPa | 0 mm | - | - | - |
| 1777680355 | 8.89° C | 62% | 1015.4 hPa | 0 mm | - | - | - |
| 1777680052 | 8.89° C | 62% | 1015.5 hPa | 0 mm | - | - | - |
| 1777679747 | 8.89° C | 60% | 1015.7 hPa | 0 mm | - | - | - |
| 1777679444 | 9.44° C | 60% | 1015.6 hPa | 0 mm | - | - | - |
* Rain latest hour (hover to see other rain measurements)
** Current wind speed in m/s (hover to see current wind gust speed)